Location: Port Townsend
(48.1170°N, 122.7590°W)
Time: 08:13:17
(UTC-07:00)

Envisat - Visible Passes

Search period start: 15 August 2018 00:00
Search period end: 25 August 2018 00:00
Orbit: 764 x 766 km, 98.2° (Epoch: 15 August)

Date Brightness Start Highest point End Pass type
(mag) Time Alt. Az. Time Alt. Az. Time Alt. Az.
16 Aug 5.6 21:30:16 10° SW 21:33:52 19° W 21:37:30 10° NW visible
17 Aug 4.5 20:52:04 10° SSW 20:56:48 39° W 21:01:34 10° NNW visible
18 Aug 6.0 21:58:13 10° WSW 21:59:48 11° W 22:01:22 10° WNW visible
19 Aug 5.3 21:18:31 10° SW 21:22:35 24° W 21:26:40 10° NW visible
20 Aug 4.1 20:40:41 10° S 20:45:35 48° W 20:50:31 10° NNW visible
21 Aug 5.8 21:45:45 10° WSW 21:48:28 14° W 21:51:10 10° NW visible
22 Aug 5.0 21:06:55 10° SSW 21:11:18 29° W 21:15:45 10° NW visible
24 Aug 5.7 21:33:45 10° SW 21:37:09 18° W 21:40:33 10° NW visible
